Location: Campillo
(40.8621°N, 4.2488°W)
Time: 11:15:31
(UTC+00:00)

CZ-4 R/B - Pass Details

Date: 11 May 2021
Orbit: 530 x 598 km, 97.7° (Epoch: 13 June)

Event Time Altitude Azimuth Distance (km) Brightness Sun altitude
Rises 19:48:55 0° 198° (SSW) 2,788 4.8 -5.0°
Reaches altitude 10° 19:51:28 10° 214° (SSW) 1,883 4.1 -5.5°
Maximum altitude 19:54:38 22° 265° (W) 1,279 4.0 -6.0°
Drops below altitude 10° 19:57:48 10° 317° (NW) 1,863 5.5 -6.5°
Sets 20:00:19 0° 333° (NNW) 2,751 6.0 -6.9°
